Location: El Azufral
(10.3513°N, 67.1528°W)
Time: 19:34:08
(UTC+00:00)

YAOGAN 3 - Pass Details

Date: 13 June 2024
Orbit: 611 x 613 km, 97.9° (Epoch: 24 July)

Event Time Altitude Azimuth Distance (km) Brightness Sun altitude
Rises 23:22:40 0° 163° (SSE) 2,870 7.6 -8.0°
Reaches altitude 10° 23:24:51 10° 161° (SSE) 1,966 6.7 -8.5°
Maximum altitude 23:29:06 69° 78° (ENE) 658 4.5 -9.4°
Drops below altitude 10° 23:33:21 10° 355° (N) 1,967 7.6 -10.4°
Sets 23:35:32 0° 353° (N) 2,872 8.5 -10.8°
